| time (UTC) | temp F | wind direction | speed knots | gust knots | rain 1hr in | rain 24hr in | rain mn in | humidity % | barometer mb |
| 20260507061219 | 61 | 224 | 0.0 | 0.9 | 0.00 | 0.00 | 0.00 | 48 | 989.0 |
| 20260507061047 | 60 | 180 | 0.0 | 0.9 | 0.00 | 0.00 | 0.00 | 48 | 989.1 |
| 20260507060815 | 61 | 135 | 0.0 | 0.9 | 0.00 | 0.00 | 0.00 | 48 | 989.0 |
| 20260507060625 | 61 | 180 | 0.0 | 0.9 | 0.00 | 0.00 | 0.00 | 48 | 989.0 |
| 20260507060012 | 60 | 135 | 0.0 | 0.9 | 0.00 | 0.00 | 0.00 | 48 | 989.1 |
| 20260507055814 | 60 | 135 | 0.0 | 0.9 | 0.00 | 0.00 | 0.00 | 48 | 989.0 |
| 20260507055603 | 61 | 169 | 0.0 | 0.9 | 0.00 | 0.00 | 0.00 | 48 | 988.9 |
| 20260507055423 | 61 | 225 | 0.0 | 0.9 | 0.00 | 0.00 | 0.00 | 48 | 989.0 |
| 20260507055159 | 60 | 219 | 0.0 | 0.0 | 0.00 | 0.00 | 0.00 | 48 | 988.8 |
| 20260507054739 | 60 | 225 | 0.0 | 0.9 | 0.00 | 0.00 | 0.00 | 48 | 988.9 |
| 20260507054547 | 60 | 209 | 0.9 | 0.9 | 0.00 | 0.00 | 0.00 | 48 | 988.9 |
| 20260507054356 | 60 | 206 | 0.0 | 0.9 | 0.00 | 0.00 | 0.00 | 48 | 988.9 |
| 20260507054148 | 60 | 180 | 0.0 | 0.9 | 0.00 | 0.00 | 0.00 | 48 | 988.9 |
| 20260507053947 | 60 | 167 | 0.0 | 0.9 | 0.00 | 0.00 | 0.00 | 48 | 988.8 |
| 20260507053522 | 61 | 0 | 0.0 | 1.7 | 0.00 | 0.00 | 0.00 | 48 | 988.8 |
| 20260507053332 | 61 | 342 | 0.9 | 1.7 | 0.00 | 0.00 | 0.00 | 48 | 988.9 |
| 20260507052714 | 61 | 135 | 0.0 | 0.9 | 0.00 | 0.00 | 0.00 | 47 | 988.9 |
| 20260507052308 | 62 | 135 | 0.9 | 0.9 | 0.00 | 0.00 | 0.00 | 47 | 988.9 |
| 20260507052127 | 62 | 116 | 0.9 | 0.9 | 0.00 | 0.00 | 0.00 | 46 | 989.0 |
| 20260507051659 | 63 | 135 | 0.0 | 2.6 | 0.00 | 0.00 | 0.00 | 47 | 989.0 |
| 20260507051455 | 63 | 180 | 0.0 | 2.6 | 0.00 | 0.00 | 0.00 | 47 | 989.0 |
| 20260507051316 | 64 | 126 | 0.0 | 0.9 | 0.00 | 0.00 | 0.00 | 45 | 989.0 |
| 20260507050904 | 65 | 289 | 0.0 | 0.9 | 0.00 | 0.00 | 0.00 | 45 | 988.9 |
| 20260507050635 | 65 | 0 | 0.0 | 0.9 | 0.00 | 0.00 | 0.00 | 45 | 989.0 |
| 20260507050440 | 65 | 0 | 0.0 | 0.0 | 0.00 | 0.00 | 0.00 | 46 | 989.0 |
| 20260507050231 | 65 | 0 | 0.0 | 0.0 | 0.00 | 0.00 | 0.00 | 46 | 989.1 |
| 20260507050041 | 65 | 89 | 0.0 | 0.0 | 0.00 | 0.00 | 0.00 | 46 | 989.1 |
| 20260507045635 | 65 | 270 | 0.0 | 0.0 | 0.00 | 0.00 | 0.00 | 46 | 989.0 |
| 20260507045018 | 65 | 321 | 0.9 | 1.7 | 0.00 | 0.00 | 0.00 | 46 | 989.1 |
| 20260507044836 | 64 | 0 | 0.0 | 0.9 | 0.00 | 0.00 | 0.00 | 47 | 989.0 |
| 20260507044624 | 64 | 119 | 0.0 | 1.7 | 0.00 | 0.00 | 0.00 | 47 | 989.0 |
| 20260507044420 | 64 | 351 | 0.0 | 2.6 | 0.00 | 0.00 | 0.00 | 47 | 989.0 |
| 20260507044158 | 64 | 323 | 0.9 | 2.6 | 0.00 | 0.00 | 0.00 | 47 | 989.1 |
| 20260507044017 | 64 | 325 | 1.7 | 2.6 | 0.00 | 0.00 | 0.00 | 46 | 989.1 |
| 20260507043810 | 64 | 342 | 1.7 | 2.6 | 0.00 | 0.00 | 0.00 | 46 | 989.1 |
| 20260507043604 | 64 | 334 | 0.9 | 1.7 | 0.00 | 0.00 | 0.00 | 46 | 989.1 |
| 20260507043409 | 64 | 314 | 0.9 | 2.6 | 0.00 | 0.00 | 0.00 | 46 | 989.1 |
| 20260507043154 | 64 | 356 | 1.7 | 2.6 | 0.00 | 0.00 | 0.00 | 46 | 989.0 |
| 20260507042950 | 64 | 347 | 0.9 | 2.6 | 0.00 | 0.00 | 0.00 | 46 | 989.1 |
| 20260507042810 | 64 | 315 | 0.0 | 1.7 | 0.00 | 0.00 | 0.00 | 46 | 989.1 |
| 20260507042602 | 64 | 330 | 0.9 | 2.6 | 0.00 | 0.00 | 0.00 | 46 | 989.1 |
| 20260507042358 | 64 | 325 | 0.9 | 4.3 | 0.00 | 0.00 | 0.00 | 46 | 989.2 |
| 20260507041544 | 64 | 354 | 1.7 | 2.6 | 0.00 | 0.00 | 0.00 | 46 | 989.2 |
| 20260507041138 | 64 | 313 | 0.9 | 2.6 | 0.00 | 0.00 | 0.00 | 47 | 989.2 |
| 20260507040918 | 64 | 0 | 1.7 | 3.5 | 0.00 | 0.00 | 0.00 | 47 | 989.3 |
| 20260507040722 | 64 | 0 | 0.9 | 3.5 | 0.00 | 0.00 | 0.00 | 47 | 989.3 |
| 20260507040517 | 64 | 354 | 0.9 | 2.6 | 0.00 | 0.00 | 0.00 | 47 | 989.3 |
| 20260507040338 | 64 | 318 | 0.9 | 2.6 | 0.00 | 0.00 | 0.00 | 47 | 989.3 |
| 20260507040106 | 64 | 329 | 1.7 | 2.6 | 0.00 | 0.00 | 0.00 | 46 | 989.4 |
| 20260507035910 | 64 | 322 | 0.0 | 2.6 | 0.00 | 0.00 | 0.00 | 46 | 989.2 |
| 20260507035653 | 64 | 352 | 1.7 | 2.6 | 0.00 | 0.00 | 0.00 | 46 | 989.4 |
| 20260507035513 | 64 | 333 | 0.9 | 2.6 | 0.00 | 0.00 | 0.00 | 46 | 989.4 |
| 20260507035305 | 64 | 343 | 2.6 | 2.6 | 0.00 | 0.00 | 0.00 | 46 | 989.3 |
| 20260507034904 | 64 | 322 | 0.0 | 3.5 | 0.00 | 0.00 | 0.00 | 46 | 989.4 |
| 20260507034647 | 64 | 342 | 1.7 | 3.5 | 0.00 | 0.00 | 0.00 | 46 | 989.4 |
| 20260507033900 | 64 | 337 | 1.7 | 2.6 | 0.00 | 0.00 | 0.00 | 46 | 989.3 |
| 20260507033700 | 64 | 323 | 0.9 | 2.6 | 0.00 | 0.00 | 0.00 | 46 | 989.3 |
| 20260507033436 | 65 | 327 | 1.7 | 2.6 | 0.00 | 0.00 | 0.00 | 46 | 989.4 |
| 20260507032839 | 65 | 346 | 2.6 | 3.5 | 0.00 | 0.00 | 0.00 | 46 | 989.4 |
| 20260507032421 | 65 | 350 | 0.9 | 3.5 | 0.00 | 0.00 | 0.00 | 46 | 989.4 |
| 20260507032213 | 65 | 336 | 2.6 | 3.5 | 0.00 | 0.00 | 0.00 | 46 | 989.4 |
| 20260507032034 | 65 | 344 | 1.7 | 3.5 | 0.00 | 0.00 | 0.00 | 46 | 989.3 |
| 20260507031603 | 65 | 341 | 0.9 | 2.6 | 0.00 | 0.00 | 0.00 | 46 | 989.4 |
| 20260507031352 | 65 | 323 | 0.9 | 2.6 | 0.00 | 0.00 | 0.00 | 46 | 989.3 |
| 20260507031137 | 65 | 359 | 0.9 | 2.6 | 0.00 | 0.00 | 0.00 | 46 | 989.3 |
| 20260507030737 | 65 | 337 | 2.6 | 3.5 | 0.00 | 0.00 | 0.00 | 46 | 989.4 |
| 20260507030536 | 65 | 300 | 0.9 | 3.5 | 0.00 | 0.00 | 0.00 | 45 | 989.4 |
| 20260507030337 | 65 | 342 | 2.6 | 2.6 | 0.00 | 0.00 | 0.00 | 45 | 989.5 |
| 20260507030139 | 65 | 0 | 2.6 | 2.6 | 0.00 | 0.00 | 0.00 | 45 | 989.5 |
| 20260507025925 | 65 | 325 | 2.6 | 2.6 | 0.00 | 0.00 | 0.00 | 45 | 989.6 |
| 20260507025730 | 65 | 350 | 0.9 | 1.7 | 0.00 | 0.00 | 0.00 | 45 | 989.6 |
| 20260507025514 | 65 | 353 | 0.9 | 1.7 | 0.00 | 0.00 | 0.00 | 45 | 989.5 |
| 20260507024919 | 65 | 348 | 1.7 | 1.7 | 0.00 | 0.00 | 0.00 | 45 | 989.5 |
| 20260507024259 | 65 | 0 | 0.0 | 1.7 | 0.00 | 0.00 | 0.00 | 45 | 989.6 |
| 20260507024104 | 65 | 350 | 0.9 | 3.5 | 0.00 | 0.00 | 0.00 | 45 | 989.6 |
| 20260507023846 | 65 | 324 | 1.7 | 3.5 | 0.00 | 0.00 | 0.00 | 45 | 989.5 |
| 20260507023654 | 65 | 346 | 0.9 | 3.5 | 0.00 | 0.00 | 0.00 | 46 | 989.6 |
| 20260507023442 | 65 | 344 | 0.9 | 0.9 | 0.00 | 0.00 | 0.00 | 46 | 989.6 |
| 20260507023104 | 65 | 342 | 0.0 | 1.7 | 0.00 | 0.00 | 0.00 | 46 | 989.7 |
| 20260507022848 | 65 | 0 | 0.0 | 1.7 | 0.00 | 0.00 | 0.00 | 46 | 989.6 |
| 20260507022647 | 65 | 328 | 1.7 | 2.6 | 0.00 | 0.00 | 0.00 | 46 | 989.7 |
| 20260507022431 | 65 | 333 | 0.9 | 2.6 | 0.00 | 0.00 | 0.00 | 46 | 989.7 |
| 20260507022235 | 65 | 0 | 2.6 | 2.6 | 0.00 | 0.00 | 0.00 | 46 | 989.6 |
| 20260507022043 | 65 | 331 | 1.7 | 3.5 | 0.00 | 0.00 | 0.00 | 46 | 989.6 |
| 20260507021621 | 65 | 352 | 1.7 | 5.2 | 0.00 | 0.00 | 0.00 | 46 | 989.6 |
| 20260507021431 | 65 | 333 | 1.7 | 5.2 | 0.00 | 0.00 | 0.00 | 46 | 989.5 |
| 20260507021207 | 65 | 340 | 5.2 | 5.2 | 0.00 | 0.00 | 0.00 | 46 | 989.5 |
| 20260507021001 | 65 | 327 | 1.7 | 4.3 | 0.00 | 0.00 | 0.00 | 46 | 989.6 |
| 20260507020200 | 65 | 346 | 1.7 | 4.3 | 0.00 | 0.00 | 0.00 | 46 | 989.6 |
| 20260507020025 | 65 | 337 | 1.7 | 4.3 | 0.00 | 0.00 | 0.00 | 46 | 989.5 |
| 20260507015747 | 65 | 344 | 1.7 | 4.3 | 0.00 | 0.00 | 0.00 | 46 | 989.6 |
| 20260507015547 | 65 | 334 | 1.7 | 4.3 | 0.00 | 0.00 | 0.00 | 45 | 989.6 |
| 20260507015337 | 65 | 343 | 1.7 | 4.3 | 0.00 | 0.00 | 0.00 | 45 | 989.6 |
| 20260507015201 | 65 | 346 | 2.6 | 4.3 | 0.00 | 0.00 | 0.00 | 45 | 989.6 |
| 20260507014933 | 65 | 353 | 2.6 | 4.3 | 0.00 | 0.00 | 0.00 | 45 | 989.7 |
| 20260507014750 | 65 | 331 | 1.7 | 2.6 | 0.00 | 0.00 | 0.00 | 45 | 989.6 |
| 20260507014524 | 65 | 327 | 0.9 | 2.6 | 0.00 | 0.00 | 0.00 | 45 | 989.7 |
| 20260507014329 | 65 | 338 | 0.9 | 2.6 | 0.00 | 0.00 | 0.00 | 45 | 989.6 |
| 20260507014158 | 65 | 0 | 2.6 | 2.6 | 0.00 | 0.00 | 0.00 | 45 | 989.7 |
| 20260507013928 | 65 | 353 | 0.9 | 3.5 | 0.00 | 0.00 | 0.00 | 45 | 989.8 |
| 20260507013726 | 65 | 325 | 1.7 | 3.5 | 0.00 | 0.00 | 0.00 | 45 | 989.7 |
| 20260507013532 | 65 | 355 | 3.5 | 3.5 | 0.00 | 0.00 | 0.00 | 45 | 989.9 |
| 20260507013129 | 65 | 349 | 0.9 | 3.5 | 0.00 | 0.00 | 0.00 | 45 | 989.8 |
| 20260507012934 | 65 | 327 | 1.7 | 4.3 | 0.00 | 0.00 | 0.00 | 46 | 989.8 |
| 20260507012710 | 65 | 342 | 1.7 | 4.3 | 0.00 | 0.00 | 0.00 | 46 | 989.8 |
| 20260507012452 | 65 | 318 | 1.7 | 3.5 | 0.00 | 0.00 | 0.00 | 46 | 989.7 |
| 20260507012329 | 65 | 346 | 2.6 | 5.2 | 0.00 | 0.00 | 0.00 | 46 | 989.8 |
| 20260507012052 | 65 | 346 | 1.7 | 5.2 | 0.00 | 0.00 | 0.00 | 46 | 989.8 |
| 20260507011916 | 65 | 341 | 1.7 | 3.5 | 0.00 | 0.00 | 0.00 | 45 | 989.8 |
| 20260507011712 | 65 | 319 | 2.6 | 2.6 | 0.00 | 0.00 | 0.00 | 45 | 989.9 |
| 20260507011455 | 65 | 343 | 1.7 | 4.3 | 0.00 | 0.00 | 0.00 | 45 | 989.9 |
| 20260507011236 | 65 | 0 | 0.9 | 4.3 | 0.00 | 0.00 | 0.00 | 45 | 989.9 |
| 20260507010638 | 65 | 341 | 0.9 | 3.5 | 0.00 | 0.00 | 0.00 | 45 | 990.0 |
| 20260507010230 | 65 | 347 | 3.5 | 3.5 | 0.00 | 0.00 | 0.00 | 45 | 990.0 |
| 20260507005905 | 65 | 351 | 0.9 | 3.5 | 0.00 | 0.00 | 0.00 | 45 | 990.1 |
| 20260507005016 | 65 | 336 | 2.6 | 4.3 | 0.00 | 0.00 | 0.00 | 45 | 990.1 |
| 20260507004803 | 65 | 347 | 2.6 | 4.3 | 0.00 | 0.00 | 0.00 | 45 | 990.1 |
| 20260507004611 | 65 | 355 | 3.5 | 4.3 | 0.00 | 0.00 | 0.00 | 45 | 990.2 |
| 20260507004349 | 65 | 351 | 2.6 | 2.6 | 0.00 | 0.00 | 0.00 | 45 | 990.2 |
| 20260507004211 | 65 | 349 | 2.6 | 2.6 | 0.00 | 0.00 | 0.00 | 45 | 990.2 |
| 20260507003543 | 65 | 331 | 0.9 | 2.6 | 0.00 | 0.00 | 0.00 | 45 | 990.2 |
| 20260507003346 | 65 | 323 | 0.9 | 3.5 | 0.00 | 0.00 | 0.00 | 45 | 990.3 |
| 20260507003148 | 65 | 334 | 0.9 | 3.5 | 0.00 | 0.00 | 0.00 | 45 | 990.2 |
| 20260507002942 | 65 | 326 | 0.9 | 3.5 | 0.00 | 0.00 | 0.00 | 45 | 990.2 |
| 20260507002729 | 65 | 327 | 2.6 | 4.3 | 0.00 | 0.00 | 0.00 | 45 | 990.2 |
| 20260507002546 | 65 | 340 | 1.7 | 4.3 | 0.00 | 0.00 | 0.00 | 45 | 990.3 |
| 20260507002320 | 65 | 337 | 3.5 | 3.5 | 0.00 | 0.00 | 0.00 | 45 | 990.2 |
| 20260507002127 | 65 | 315 | 1.7 | 5.2 | 0.00 | 0.00 | 0.00 | 45 | 990.3 |
| 20260507001715 | 65 | 333 | 5.2 | 5.2 | 0.00 | 0.00 | 0.00 | 45 | 990.4 |
| 20260507001509 | 65 | 323 | 1.7 | 3.5 | 0.00 | 0.00 | 0.00 | 45 | 990.3 |
| 20260507001321 | 65 | 326 | 2.6 | 3.5 | 0.00 | 0.00 | 0.00 | 45 | 990.3 |
| 20260507001103 | 65 | 324 | 3.5 | 5.2 | 0.00 | 0.00 | 0.00 | 45 | 990.2 |
| 20260507000902 | 65 | 346 | 2.6 | 5.2 | 0.00 | 0.00 | 0.00 | 45 | 990.3 |
| 20260507000303 | 65 | 335 | 3.5 | 6.1 | 0.00 | 0.00 | 0.00 | 45 | 990.3 |
| 20260507000108 | 65 | 349 | 4.3 | 6.1 | 0.00 | 0.00 | 0.00 | 45 | 990.3 |
| 20260506235840 | 65 | 346 | 1.7 | 4.3 | 0.00 | 0.00 | 0.00 | 45 | 990.3 |
| 20260506235645 | 65 | 352 | 3.5 | 5.2 | 0.00 | 0.00 | 0.00 | 45 | 990.3 |
| 20260506235438 | 65 | 331 | 0.9 | 5.2 | 0.00 | 0.00 | 0.00 | 45 | 990.2 |
| 20260506235253 | 65 | 341 | 3.5 | 5.2 | 0.00 | 0.00 | 0.00 | 45 | 990.3 |
| 20260506234838 | 65 | 338 | 4.3 | 4.3 | 0.00 | 0.00 | 0.00 | 45 | 990.2 |
| 20260506234651 | 65 | 322 | 4.3 | 4.3 | 0.00 | 0.00 | 0.00 | 45 | 990.2 |
| 20260506234430 | 65 | 333 | 2.6 | 6.1 | 0.00 | 0.00 | 0.00 | 45 | 990.1 |
| 20260506234213 | 65 | 344 | 2.6 | 6.1 | 0.00 | 0.00 | 0.00 | 45 | 990.2 |
| 20260506233807 | 65 | 340 | 2.6 | 5.2 | 0.00 | 0.00 | 0.00 | 45 | 990.1 |
| 20260506233614 | 65 | 337 | 2.6 | 5.2 | 0.00 | 0.00 | 0.00 | 44 | 990.2 |
| 20260506233417 | 66 | 336 | 1.7 | 6.1 | 0.00 | 0.00 | 0.00 | 44 | 990.1 |
| 20260506233205 | 66 | 343 | 2.6 | 6.1 | 0.00 | 0.00 | 0.00 | 44 | 990.2 |
| 20260506232956 | 66 | 311 | 2.6 | 6.1 | 0.00 | 0.00 | 0.00 | 44 | 990.2 |
| 20260506232828 | 66 | 344 | 1.7 | 5.2 | 0.00 | 0.00 | 0.00 | 44 | 990.3 |
| 20260506232356 | 66 | 349 | 2.6 | 7.8 | 0.00 | 0.00 | 0.00 | 44 | 990.2 |
| 20260506232226 | 66 | 332 | 3.5 | 4.3 | 0.00 | 0.00 | 0.00 | 44 | 990.1 |
| 20260506231938 | 66 | 337 | 2.6 | 4.3 | 0.00 | 0.00 | 0.00 | 44 | 990.2 |
| 20260506231633 | 66 | 330 | 1.7 | 5.2 | 0.00 | 0.00 | 0.00 | 44 | 990.2 |
| 20260506231335 | 66 | 327 | 2.6 | 5.2 | 0.00 | 0.00 | 0.00 | 44 | 990.2 |
| 20260506231140 | 66 | 340 | 2.6 | 4.3 | 0.00 | 0.00 | 0.00 | 44 | 990.2 |
| 20260506230951 | 66 | 341 | 2.6 | 6.1 | 0.00 | 0.00 | 0.00 | 44 | 990.2 |
| 20260506230551 | 66 | 337 | 6.1 | 6.1 | 0.00 | 0.00 | 0.00 | 44 | 990.3 |
| 20260506230132 | 66 | 320 | 2.6 | 5.2 | 0.00 | 0.00 | 0.00 | 44 | 990.2 |
| 20260506225908 | 66 | 333 | 2.6 | 6.1 | 0.00 | 0.00 | 0.00 | 44 | 990.3 |
| 20260506225731 | 66 | 338 | 2.6 | 6.1 | 0.00 | 0.00 | 0.00 | 44 | 990.3 |
| 20260506225100 | 66 | 349 | 4.3 | 6.1 | 0.00 | 0.00 | 0.00 | 44 | 990.3 |
| 20260506224724 | 66 | 320 | 4.3 | 6.1 | 0.00 | 0.00 | 0.00 | 44 | 990.4 |
| 20260506224511 | 66 | 338 | 1.7 | 7.0 | 0.00 | 0.00 | 0.00 | 44 | 990.3 |
| 20260506224257 | 66 | 341 | 2.6 | 7.0 | 0.00 | 0.00 | 0.00 | 44 | 990.3 |
| 20260506223859 | 66 | 336 | 2.6 | 5.2 | 0.00 | 0.00 | 0.00 | 44 | 990.4 |
| 20260506223452 | 66 | 328 | 3.5 | 6.1 | 0.00 | 0.00 | 0.00 | 43 | 990.4 |
| 20260506223254 | 66 | 345 | 5.2 | 6.1 | 0.00 | 0.00 | 0.00 | 43 | 990.5 |
| 20260506223113 | 66 | 340 | 4.3 | 6.1 | 0.00 | 0.00 | 0.00 | 43 | 990.5 |
| 20260506222837 | 66 | 339 | 1.7 | 6.1 | 0.00 | 0.00 | 0.00 | 43 | 990.5 |
| 20260506222642 | 66 | 331 | 3.5 | 7.0 | 0.00 | 0.00 | 0.00 | 43 | 990.4 |
| 20260506222434 | 66 | 342 | 3.5 | 7.0 | 0.00 | 0.00 | 0.00 | 43 | 990.4 |
| 20260506222231 | 66 | 330 | 4.3 | 7.0 | 0.00 | 0.00 | 0.00 | 43 | 990.5 |
| 20260506221608 | 66 | 328 | 2.6 | 7.0 | 0.00 | 0.00 | 0.00 | 43 | 990.4 |
| 20260506221031 | 67 | 335 | 2.6 | 7.8 | 0.00 | 0.00 | 0.00 | 42 | 990.5 |
| 20260506220753 | 67 | 338 | 4.3 | 7.8 | 0.00 | 0.00 | 0.00 | 42 | 990.5 |
| 20260506220620 | 67 | 338 | 6.1 | 6.1 | 0.00 | 0.00 | 0.00 | 42 | 990.6 |
| 20260506220347 | 67 | 330 | 1.7 | 5.2 | 0.00 | 0.00 | 0.00 | 42 | 990.5 |
| 20260506220154 | 67 | 352 | 3.5 | 5.2 | 0.00 | 0.00 | 0.00 | 42 | 990.5 |
| 20260506220020 | 67 | 359 | 4.3 | 6.1 | 0.00 | 0.00 | 0.00 | 42 | 990.6 |
| 20260506215529 | 67 | 330 | 1.7 | 7.8 | 0.00 | 0.00 | 0.00 | 42 | 990.6 |
| 20260506215323 | 67 | 347 | 7.0 | 7.8 | 0.00 | 0.00 | 0.00 | 42 | 990.6 |
| 20260506215128 | 67 | 337 | 7.8 | 7.8 | 0.00 | 0.00 | 0.00 | 42 | 990.6 |
| 20260506214917 | 67 | 341 | 4.3 | 6.1 | 0.00 | 0.00 | 0.00 | 42 | 990.6 |
| 20260506214715 | 67 | 334 | 4.3 | 6.1 | 0.00 | 0.00 | 0.00 | 42 | 990.6 |
| 20260506214529 | 67 | 341 | 4.3 | 6.1 | 0.00 | 0.00 | 0.00 | 42 | 990.6 |
| 20260506214315 | 67 | 317 | 1.7 | 7.8 | 0.00 | 0.00 | 0.00 | 42 | 990.5 |
| 20260506213924 | 67 | 337 | 3.5 | 6.1 | 0.00 | 0.00 | 0.00 | 41 | 990.5 |
| 20260506213706 | 67 | 341 | 4.3 | 5.2 | 0.00 | 0.00 | 0.00 | 41 | 990.5 |
| 20260506213319 | 67 | 333 | 1.7 | 7.8 | 0.00 | 0.00 | 0.00 | 41 | 990.6 |
| 20260506212846 | 67 | 339 | 3.5 | 7.8 | 0.00 | 0.00 | 0.00 | 41 | 990.6 |
| 20260506212712 | 67 | 339 | 4.3 | 7.8 | 0.00 | 0.00 | 0.00 | 41 | 990.5 |
| 20260506212504 | 67 | 327 | 6.1 | 7.8 | 0.00 | 0.00 | 0.00 | 41 | 990.5 |
| 20260506211845 | 67 | 333 | 4.3 | 7.0 | 0.00 | 0.00 | 0.00 | 40 | 990.5 |
| 20260506211020 | 68 | 332 | 3.5 | 4.3 | 0.00 | 0.00 | 0.00 | 39 | 990.6 |
| 20260506210823 | 68 | 334 | 3.5 | 6.1 | 0.00 | 0.00 | 0.00 | 39 | 990.6 |
| 20260506210613 | 68 | 348 | 2.6 | 6.1 | 0.00 | 0.00 | 0.00 | 39 | 990.5 |
| 20260506210503 | 68 | 327 | 2.6 | 6.1 | 0.00 | 0.00 | 0.00 | 39 | 990.6 |
| 20260506210203 | 68 | 341 | 3.5 | 6.1 | 0.00 | 0.00 | 0.00 | 39 | 990.6 |
| 20260506210051 | 68 | 340 | 5.2 | 6.1 | 0.00 | 0.00 | 0.00 | 39 | 990.5 |
| 20260506205759 | 68 | 338 | 1.7 | 6.1 | 0.00 | 0.00 | 0.00 | 38 | 990.5 |
| 20260506205633 | 68 | 337 | 3.5 | 6.1 | 0.00 | 0.00 | 0.00 | 38 | 990.5 |
| 20260506205415 | 68 | 332 | 5.2 | 5.2 | 0.00 | 0.00 | 0.00 | 38 | 990.4 |
| 20260506205204 | 68 | 339 | 2.6 | 7.0 | 0.00 | 0.00 | 0.00 | 38 | 990.5 |
| 20260506204956 | 68 | 328 | 2.6 | 7.0 | 0.00 | 0.00 | 0.00 | 38 | 990.6 |
| 20260506204751 | 68 | 315 | 7.0 | 7.0 | 0.00 | 0.00 | 0.00 | 37 | 990.4 |
| 20260506204609 | 69 | 341 | 3.5 | 7.8 | 0.00 | 0.00 | 0.00 | 37 | 990.4 |
| 20260506204352 | 69 | 327 | 1.7 | 7.8 | 0.00 | 0.00 | 0.00 | 37 | 990.4 |
| 20260506204140 | 69 | 333 | 5.2 | 7.8 | 0.00 | 0.00 | 0.00 | 37 | 990.4 |
| 20260506204004 | 69 | 326 | 1.7 | 5.2 | 0.00 | 0.00 | 0.00 | 37 | 990.4 |
| 20260506203733 | 69 | 334 | 5.2 | 5.2 | 0.00 | 0.00 | 0.00 | 37 | 990.4 |
| 20260506203601 | 69 | 333 | 2.6 | 6.1 | 0.00 | 0.00 | 0.00 | 36 | 990.4 |
| 20260506203327 | 69 | 358 | 1.7 | 6.1 | 0.00 | 0.00 | 0.00 | 36 | 990.3 |
| 20260506203132 | 69 | 322 | 5.2 | 6.1 | 0.00 | 0.00 | 0.00 | 36 | 990.4 |
| 20260506203009 | 69 | 338 | 4.3 | 7.0 | 0.00 | 0.00 | 0.00 | 36 | 990.3 |
| 20260506202739 | 69 | 336 | 2.6 | 7.0 | 0.00 | 0.00 | 0.00 | 35 | 990.3 |
| 20260506202517 | 69 | 320 | 2.6 | 7.0 | 0.00 | 0.00 | 0.00 | 35 | 990.3 |
| 20260506202311 | 69 | 333 | 4.3 | 5.2 | 0.00 | 0.00 | 0.00 | 35 | 990.2 |
| 20260506201249 | 70 | 347 | 2.6 | 5.2 | 0.00 | 0.00 | 0.00 | 34 | 990.1 |
| 20260506200915 | 70 | 329 | 1.7 | 6.1 | 0.00 | 0.00 | 0.00 | 34 | 990.1 |
| 20260506200658 | 70 | 317 | 1.7 | 6.1 | 0.00 | 0.00 | 0.00 | 34 | 990.1 |
| 20260506200437 | 70 | 333 | 3.5 | 6.1 | 0.00 | 0.00 | 0.00 | 34 | 990.0 |
| 20260506200326 | 70 | 333 | 5.2 | 6.1 | 0.00 | 0.00 | 0.00 | 33 | 990.1 |
| 20260506200040 | 70 | 331 | 1.7 | 6.1 | 0.00 | 0.00 | 0.00 | 33 | 990.0 |
| 20260506195226 | 70 | 322 | 1.7 | 5.2 | 0.00 | 0.00 | 0.00 | 32 | 989.9 |
| 20260506195055 | 70 | 351 | 3.5 | 5.2 | 0.00 | 0.00 | 0.00 | 32 | 990.0 |
| 20260506194831 | 70 | 343 | 3.5 | 7.0 | 0.00 | 0.00 | 0.00 | 32 | 990.0 |
| 20260506194230 | 71 | 344 | 2.6 | 7.8 | 0.00 | 0.00 | 0.00 | 31 | 989.8 |
| 20260506194011 | 71 | 334 | 4.3 | 7.8 | 0.00 | 0.00 | 0.00 | 31 | 989.9 |
| 20260506193820 | 71 | 333 | 5.2 | 7.8 | 0.00 | 0.00 | 0.00 | 31 | 989.9 |
| 20260506193411 | 71 | 338 | 4.3 | 7.8 | 0.00 | 0.00 | 0.00 | 30 | 989.9 |
| 20260506193216 | 71 | 332 | 5.2 | 8.7 | 0.00 | 0.00 | 0.00 | 30 | 989.9 |
| 20260506192628 | 72 | 320 | 2.6 | 7.0 | 0.00 | 0.00 | 0.00 | 29 | 989.9 |
| 20260506192354 | 72 | 320 | 3.5 | 7.0 | 0.00 | 0.00 | 0.00 | 29 | 989.8 |
| 20260506192142 | 72 | 334 | 2.6 | 7.0 | 0.00 | 0.00 | 0.00 | 29 | 989.8 |
| 20260506191952 | 72 | 333 | 5.2 | 7.8 | 0.00 | 0.00 | 0.00 | 29 | 989.8 |
| 20260506191736 | 72 | 321 | 3.5 | 7.8 | 0.00 | 0.00 | 0.00 | 29 | 989.7 |
| 20260506191358 | 72 | 335 | 6.1 | 8.7 | 0.00 | 0.00 | 0.00 | 28 | 989.6 |
| 20260506191118 | 72 | 334 | 6.1 | 8.7 | 0.00 | 0.00 | 0.00 | 28 | 989.7 |
| 20260506190917 | 73 | 312 | 4.3 | 7.8 | 0.00 | 0.00 | 0.00 | 28 | 989.7 |
| 20260506190713 | 73 | 325 | 5.2 | 7.8 | 0.00 | 0.00 | 0.00 | 28 | 989.6 |
| 20260506190521 | 73 | 340 | 5.2 | 7.8 | 0.00 | 0.00 | 0.00 | 27 | 989.6 |
| 20260506190315 | 73 | 318 | 6.1 | 7.8 | 0.00 | 0.00 | 0.00 | 27 | 989.5 |
| 20260506190118 | 73 | 326 | 5.2 | 8.7 | 0.00 | 0.00 | 0.00 | 27 | 989.5 |
| 20260506185911 | 73 | 341 | 7.0 | 8.7 | 0.00 | 0.00 | 0.00 | 27 | 989.5 |
| 20260506185705 | 73 | 327 | 6.1 | 8.7 | 0.00 | 0.00 | 0.00 | 27 | 989.4 |
| 20260506185456 | 73 | 339 | 6.1 | 8.7 | 0.00 | 0.00 | 0.00 | 26 | 989.5 |
| 20260506185325 | 74 | 342 | 4.3 | 8.7 | 0.00 | 0.00 | 0.00 | 26 | 989.4 |
| 20260506185046 | 74 | 351 | 8.7 | 8.7 | 0.00 | 0.00 | 0.00 | 26 | 989.5 |
| 20260506184850 | 74 | 328 | 4.3 | 6.1 | 0.00 | 0.00 | 0.00 | 26 | 989.5 |
| 20260506184501 | 74 | 311 | 1.7 | 8.7 | 0.00 | 0.00 | 0.00 | 25 | 989.4 |
| 20260506184233 | 74 | 317 | 5.2 | 7.8 | 0.00 | 0.00 | 0.00 | 25 | 989.3 |
| 20260506184041 | 75 | 329 | 3.5 | 7.0 | 0.00 | 0.00 | 0.00 | 25 | 989.4 |
| 20260506183840 | 75 | 322 | 3.5 | 8.7 | 0.00 | 0.00 | 0.00 | 25 | 989.3 |
| 20260506183634 | 75 | 339 | 5.2 | 8.7 | 0.00 | 0.00 | 0.00 | 24 | 989.4 |
| 20260506183223 | 75 | 322 | 7.8 | 8.7 | 0.00 | 0.00 | 0.00 | 24 | 989.4 |
| 20260506183016 | 75 | 334 | 5.2 | 7.0 | 0.00 | 0.00 | 0.00 | 24 | 989.4 |
| 20260506182610 | 76 | 328 | 5.2 | 8.7 | 0.00 | 0.00 | 0.00 | 24 | 989.3 |
| 20260506182400 | 76 | 334 | 4.3 | 7.0 | 0.00 | 0.00 | 0.00 | 24 | 989.3 |
| 20260506181753 | 76 | 315 | 5.2 | 8.7 | 0.00 | 0.00 | 0.00 | 23 | 989.3 |
| 20260506181611 | 76 | 334 | 4.3 | 7.8 | 0.00 | 0.00 | 0.00 | 23 | 989.3 |
| 20260506181351 | 76 | 332 | 4.3 | 8.7 | 0.00 | 0.00 | 0.00 | 23 | 989.3 |
| 20260506181155 | 77 | 323 | 2.6 | 8.7 | 0.00 | 0.00 | 0.00 | 23 | 989.3 |
| 20260506180944 | 77 | 318 | 4.3 | 8.7 | 0.00 | 0.00 | 0.00 | 23 | 989.2 |
| 20260506180746 | 77 | 319 | 3.5 | 7.0 | 0.00 | 0.00 | 0.00 | 23 | 989.3 |
| 20260506180531 | 77 | 332 | 3.5 | 6.1 | 0.00 | 0.00 | 0.00 | 23 | 989.3 |
| 20260506180335 | 77 | 338 | 2.6 | 7.8 | 0.00 | 0.00 | 0.00 | 23 | 989.3 |
| 20260506180125 | 77 | 334 | 5.2 | 7.8 | 0.00 | 0.00 | 0.00 | 23 | 989.3 |
| 20260506175936 | 77 | 343 | 6.1 | 10.4 | 0.00 | 0.00 | 0.00 | 23 | 989.2 |
| 20260506175719 | 77 | 332 | 3.5 | 11.3 | 0.00 | 0.00 | 0.00 | 22 | 989.3 |
| 20260506175525 | 77 | 333 | 9.6 | 11.3 | 0.00 | 0.00 | 0.00 | 22 | 989.3 |
| 20260506175319 | 77 | 336 | 7.8 | 11.3 | 0.00 | 0.00 | 0.00 | 22 | 989.4 |
| 20260506175124 | 77 | 335 | 9.6 | 9.6 | 0.00 | 0.00 | 0.00 | 22 | 989.4 |
| 20260506174717 | 78 | 338 | 7.8 | 7.8 | 0.00 | 0.00 | 0.00 | 22 | 989.4 |
| 20260506174506 | 78 | 331 | 3.5 | 7.8 | 0.00 | 0.00 | 0.00 | 22 | 989.4 |
| 20260506174338 | 78 | 323 | 3.5 | 9.6 | 0.00 | 0.00 | 0.00 | 21 | 989.4 |
| 20260506174053 | 78 | 322 | 3.5 | 10.4 | 0.00 | 0.00 | 0.00 | 21 | 989.4 |
| 20260506173719 | 78 | 328 | 7.8 | 7.8 | 0.00 | 0.00 | 0.00 | 21 | 989.4 |
| 20260506173248 | 78 | 329 | 5.2 | 7.8 | 0.00 | 0.00 | 0.00 | 21 | 989.4 |
| 20260506173115 | 78 | 340 | 5.2 | 8.7 | 0.00 | 0.00 | 0.00 | 21 | 989.4 |
| 20260506172637 | 78 | 336 | 7.8 | 9.6 | 0.00 | 0.00 | 0.00 | 21 | 989.3 |
| 20260506172505 | 79 | 324 | 6.1 | 10.4 | 0.00 | 0.00 | 0.00 | 21 | 989.4 |
| 20260506172238 | 79 | 330 | 6.1 | 10.4 | 0.00 | 0.00 | 0.00 | 21 | 989.4 |
| 20260506171857 | 79 | 324 | 5.2 | 7.0 | 0.00 | 0.00 | 0.00 | 20 | 989.4 |
| 20260506171636 | 79 | 331 | 2.6 | 8.7 | 0.00 | 0.00 | 0.00 | 20 | 989.4 |
| 20260506171426 | 79 | 327 | 6.1 | 8.7 | 0.00 | 0.00 | 0.00 | 20 | 989.4 |
| 20260506171009 | 79 | 349 | 3.5 | 7.8 | 0.00 | 0.00 | 0.00 | 20 | 989.3 |
| 20260506170815 | 79 | 346 | 5.2 | 7.8 | 0.00 | 0.00 | 0.00 | 20 | 989.4 |
| 20260506170413 | 79 | 337 | 4.3 | 8.7 | 0.00 | 0.00 | 0.00 | 20 | 989.5 |
| 20260506170205 | 79 | 321 | 4.3 | 5.2 | 0.00 | 0.00 | 0.00 | 21 | 989.5 |
| 20260506165347 | 78 | 351 | 2.6 | 7.0 | 0.00 | 0.00 | 0.00 | 21 | 989.5 |
| 20260506165158 | 78 | 329 | 3.5 | 8.7 | 0.00 | 0.00 | 0.00 | 22 | 989.5 |
| 20260506164943 | 78 | 344 | 3.5 | 8.7 | 0.00 | 0.00 | 0.00 | 21 | 989.6 |
| 20260506164748 | 78 | 324 | 7.0 | 7.0 | 0.00 | 0.00 | 0.00 | 22 | 989.5 |
| 20260506164542 | 78 | 347 | 3.5 | 5.2 | 0.00 | 0.00 | 0.00 | 22 | 989.6 |
| 20260506164331 | 78 | 303 | 1.7 | 5.2 | 0.00 | 0.00 | 0.00 | 22 | 989.6 |
| 20260506164155 | 78 | 341 | 0.9 | 5.2 | 0.00 | 0.00 | 0.00 | 22 | 989.6 |
| 20260506163919 | 77 | 335 | 2.6 | 7.8 | 0.00 | 0.00 | 0.00 | 22 | 989.6 |
| 20260506163735 | 78 | 342 | 3.5 | 7.8 | 0.00 | 0.00 | 0.00 | 22 | 989.6 |
| 20260506162910 | 77 | 340 | 7.0 | 7.8 | 0.00 | 0.00 | 0.00 | 23 | 989.5 |
| 20260506162125 | 77 | 324 | 3.5 | 10.4 | 0.00 | 0.00 | 0.00 | 23 | 989.5 |
| 20260506161852 | 77 | 327 | 7.8 | 10.4 | 0.00 | 0.00 | 0.00 | 23 | 989.5 |
| 20260506161649 | 78 | 329 | 4.3 | 10.4 | 0.00 | 0.00 | 0.00 | 23 | 989.5 |
| 20260506161039 | 78 | 0 | 7.8 | 9.6 | 0.00 | 0.00 | 0.00 | 21 | 989.5 |
| 20260506160842 | 78 | 311 | 6.1 | 7.8 | 0.00 | 0.00 | 0.00 | 21 | 989.6 |
| 20260506155813 | 79 | 339 | 5.2 | 6.1 | 0.00 | 0.00 | 0.00 | 19 | 989.6 |
| 20260506155626 | 79 | 285 | 5.2 | 7.0 | 0.00 | 0.00 | 0.00 | 19 | 989.5 |
| 20260506155414 | 79 | 333 | 2.6 | 7.0 | 0.00 | 0.00 | 0.00 | 19 | 989.6 |
| 20260506155002 | 79 | 347 | 3.5 | 6.1 | 0.00 | 0.00 | 0.00 | 19 | 989.5 |
| 20260506154358 | 79 | 333 | 5.2 | 7.0 | 0.00 | 0.00 | 0.00 | 19 | 989.6 |
| 20260506154215 | 79 | 320 | 2.6 | 7.0 | 0.00 | 0.00 | 0.00 | 19 | 989.7 |
| 20260506154000 | 79 | 334 | 5.2 | 7.8 | 0.00 | 0.00 | 0.00 | 18 | 989.6 |
| 20260506153745 | 80 | 333 | 4.3 | 8.7 | 0.00 | 0.00 | 0.00 | 18 | 989.6 |
| 20260506153618 | 80 | 338 | 7.0 | 8.7 | 0.00 | 0.00 | 0.00 | 17 | 989.6 |
| 20260506153342 | 80 | 358 | 8.7 | 8.7 | 0.00 | 0.00 | 0.00 | 16 | 989.6 |
| 20260506152952 | 81 | 333 | 5.2 | 6.1 | 0.00 | 0.00 | 0.00 | 16 | 989.5 |
| 20260506152123 | 82 | 282 | 7.0 | 9.6 | 0.00 | 0.00 | 0.00 | 15 | 989.7 |
| 20260506151918 | 82 | 342 | 5.2 | 9.6 | 0.00 | 0.00 | 0.00 | 15 | 989.7 |
| 20260506151516 | 82 | 0 | 7.0 | 7.8 | 0.00 | 0.00 | 0.00 | 16 | 989.7 |
| 20260506151306 | 82 | 340 | 4.3 | 8.7 | 0.00 | 0.00 | 0.00 | 16 | 989.8 |
| 20260506151137 | 82 | 309 | 3.5 | 8.7 | 0.00 | 0.00 | 0.00 | 16 | 989.7 |
| 20260506150857 | 82 | 319 | 3.5 | 8.7 | 0.00 | 0.00 | 0.00 | 16 | 989.8 |
| 20260506150729 | 82 | 315 | 6.1 | 6.1 | 0.00 | 0.00 | 0.00 | 15 | 989.8 |
| 20260506150455 | 82 | 332 | 1.7 | 7.0 | 0.00 | 0.00 | 0.00 | 15 | 989.9 |
| 20260506150052 | 81 | 328 | 3.5 | 7.8 | 0.00 | 0.00 | 0.00 | 16 | 989.9 |
| 20260506145857 | 81 | 334 | 3.5 | 7.8 | 0.00 | 0.00 | 0.00 | 16 | 989.9 |
| 20260506145456 | 80 | 331 | 4.3 | 6.1 | 0.00 | 0.00 | 0.00 | 17 | 990.0 |
| 20260506145239 | 79 | 341 | 3.5 | 6.1 | 0.00 | 0.00 | 0.00 | 17 | 990.1 |
| 20260506145059 | 79 | 334 | 1.7 | 7.8 | 0.00 | 0.00 | 0.00 | 17 | 990.1 |
| 20260506144833 | 79 | 334 | 3.5 | 7.8 | 0.00 | 0.00 | 0.00 | 17 | 990.1 |
| 20260506144436 | 80 | 356 | 4.3 | 7.0 | 0.00 | 0.00 | 0.00 | 17 | 990.3 |
| 20260506144247 | 80 | 0 | 1.7 | 8.7 | 0.00 | 0.00 | 0.00 | 17 | 990.3 |
| 20260506143614 | 81 | 315 | 0.9 | 7.8 | 0.00 | 0.00 | 0.00 | 16 | 990.4 |
| 20260506143419 | 81 | 284 | 7.8 | 7.8 | 0.00 | 0.00 | 0.00 | 15 | 990.4 |
| 20260506143243 | 81 | 324 | 2.6 | 7.8 | 0.00 | 0.00 | 0.00 | 15 | 990.4 |
| 20260506142809 | 82 | 353 | 5.2 | 5.2 | 0.00 | 0.00 | 0.00 | 15 | 990.4 |
| 20260506142205 | 82 | 344 | 6.1 | 7.8 | 0.00 | 0.00 | 0.00 | 15 | 990.4 |
| 20260506141754 | 81 | 110 | 1.7 | 8.7 | 0.00 | 0.00 | 0.00 | 15 | 990.5 |
| 20260506141541 | 82 | 331 | 2.6 | 8.7 | 0.00 | 0.00 | 0.00 | 16 | 990.5 |
| 20260506140940 | 81 | 313 | 2.6 | 7.8 | 0.00 | 0.00 | 0.00 | 15 | 990.6 |
| 20260506140723 | 81 | 336 | 4.3 | 6.1 | 0.00 | 0.00 | 0.00 | 16 | 990.6 |
| 20260506140218 | 80 | 314 | 4.3 | 7.8 | 0.00 | 0.00 | 0.00 | 17 | 990.7 |
| 20260506135915 | 80 | 332 | 4.3 | 7.8 | 0.00 | 0.00 | 0.00 | 17 | 990.8 |
| 20260506135722 | 80 | 319 | 3.5 | 7.8 | 0.00 | 0.00 | 0.00 | 17 | 990.8 |
| 20260506135503 | 81 | 303 | 1.7 | 7.8 | 0.00 | 0.00 | 0.00 | 17 | 990.8 |
| 20260506135103 | 80 | 352 | 7.8 | 7.8 | 0.00 | 0.00 | 0.00 | 17 | 990.9 |
| 20260506134720 | 79 | 257 | 3.5 | 5.2 | 0.00 | 0.00 | 0.00 | 18 | 990.9 |
| 20260506134502 | 79 | 321 | 2.6 | 5.2 | 0.00 | 0.00 | 0.00 | 19 | 991.0 |
| 20260506134250 | 79 | 327 | 5.2 | 5.2 | 0.00 | 0.00 | 0.00 | 19 | 991.0 |
| 20260506132433 | 80 | 345 | 3.5 | 7.0 | 0.00 | 0.00 | 0.00 | 18 | 991.2 |
| 20260506131812 | 81 | 330 | 3.5 | 7.0 | 0.00 | 0.00 | 0.00 | 16 | 991.2 |
| 20260506131359 | 82 | 312 | 1.7 | 6.1 | 0.00 | 0.00 | 0.00 | 16 | 991.3 |
| 20260506131000 | 82 | 246 | 0.9 | 8.7 | 0.00 | 0.00 | 0.00 | 17 | 991.3 |
| 20260506125937 | 81 | 336 | 2.6 | 4.3 | 0.00 | 0.00 | 0.00 | 18 | 991.5 |
| 20260506125736 | 81 | 283 | 1.7 | 5.2 | 0.00 | 0.00 | 0.00 | 18 | 991.4 |
| 20260506125604 | 80 | 351 | 1.7 | 5.2 | 0.00 | 0.00 | 0.00 | 18 | 991.5 |
| 20260506124950 | 80 | 328 | 4.3 | 5.2 | 0.00 | 0.00 | 0.00 | 19 | 991.5 |
| 20260506124137 | 79 | 282 | 5.2 | 5.2 | 0.00 | 0.00 | 0.00 | 19 | 991.7 |
| 20260506123135 | 79 | 320 | 2.6 | 7.8 | 0.00 | 0.00 | 0.00 | 20 | 991.8 |
| 20260506122653 | 79 | 359 | 6.1 | 7.8 | 0.00 | 0.00 | 0.00 | 19 | 991.9 |
| 20260506122256 | 79 | 332 | 6.1 | 10.4 | 0.00 | 0.00 | 0.00 | 19 | 991.8 |
| 20260506122123 | 79 | 322 | 5.2 | 5.2 | 0.00 | 0.00 | 0.00 | 20 | 991.8 |
| 20260506121909 | 79 | 334 | 0.9 | 4.3 | 0.00 | 0.00 | 0.00 | 20 | 991.9 |
| 20260506121434 | 78 | 321 | 1.7 | 6.1 | 0.00 | 0.00 | 0.00 | 21 | 992.0 |
| 20260506121239 | 77 | 237 | 4.3 | 6.1 | 0.00 | 0.00 | 0.00 | 21 | 992.0 |
| 20260506121110 | 77 | 314 | 3.5 | 6.1 | 0.00 | 0.00 | 0.00 | 21 | 992.1 |
| 20260506120851 | 77 | 344 | 1.7 | 7.8 | 0.00 | 0.00 | 0.00 | 21 | 992.1 |
| 20260506120229 | 78 | 315 | 3.5 | 7.0 | 0.00 | 0.00 | 0.00 | 20 | 992.1 |
| 20260506120054 | 79 | 330 | 4.3 | 7.0 | 0.00 | 0.00 | 0.00 | 20 | 992.1 |
| 20260506115416 | 79 | 304 | 1.7 | 6.1 | 0.00 | 0.00 | 0.00 | 20 | 992.2 |
| 20260506114957 | 79 | 348 | 5.2 | 5.2 | 0.00 | 0.00 | 0.00 | 20 | 992.2 |
| 20260506114747 | 79 | 283 | 0.0 | 6.1 | 0.00 | 0.00 | 0.00 | 21 | 992.2 |
| 20260506114624 | 79 | 319 | 0.9 | 6.1 | 0.00 | 0.00 | 0.00 | 21 | 992.2 |
| 20260506114343 | 78 | 345 | 6.1 | 6.1 | 0.00 | 0.00 | 0.00 | 21 | 992.4 |
| 20260506113745 | 78 | 0 | 6.1 | 10.4 | 0.00 | 0.00 | 0.00 | 20 | 992.5 |
| 20260506113404 | 78 | 345 | 5.2 | 9.6 | 0.00 | 0.00 | 0.00 | 20 | 992.4 |
| 20260506113127 | 78 | 290 | 0.0 | 9.6 | 0.00 | 0.00 | 0.00 | 21 | 992.4 |
| 20260506112929 | 77 | 288 | 7.8 | 9.6 | 0.00 | 0.00 | 0.00 | 21 | 992.5 |
| 20260506112539 | 78 | 294 | 4.3 | 7.8 | 0.00 | 0.00 | 0.00 | 21 | 992.5 |
| 20260506112320 | 77 | 315 | 1.7 | 7.8 | 0.00 | 0.00 | 0.00 | 21 | 992.5 |
| 20260506112124 | 77 | 345 | 5.2 | 7.8 | 0.00 | 0.00 | 0.00 | 22 | 992.7 |
| 20260506111706 | 77 | 278 | 2.6 | 7.8 | 0.00 | 0.00 | 0.00 | 21 | 992.6 |
| 20260506111528 | 77 | 337 | 4.3 | 7.8 | 0.00 | 0.00 | 0.00 | 22 | 992.7 |
| 20260506111055 | 76 | 106 | 0.9 | 6.1 | 0.00 | 0.00 | 0.00 | 23 | 992.6 |
| 20260506110901 | 76 | 100 | 1.7 | 7.0 | 0.00 | 0.00 | 0.00 | 22 | 992.6 |
| 20260506110649 | 76 | 103 | 3.5 | 7.0 | 0.00 | 0.00 | 0.00 | 23 | 992.7 |
| 20260506110458 | 76 | 293 | 4.3 | 6.1 | 0.00 | 0.00 | 0.00 | 23 | 992.7 |
| 20260506110243 | 76 | 96 | 4.3 | 7.8 | 0.00 | 0.00 | 0.00 | 22 | 992.7 |
| 20260506110043 | 77 | 341 | 4.3 | 7.8 | 0.00 | 0.00 | 0.00 | 23 | 992.8 |
| 20260506105640 | 76 | 54 | 3.5 | 6.1 | 0.00 | 0.00 | 0.00 | 23 | 992.7 |
| 20260506105019 | 75 | 310 | 6.1 | 7.0 | 0.00 | 0.00 | 0.00 | 24 | 992.9 |
| 20260506104825 | 75 | 334 | 5.2 | 7.0 | 0.00 | 0.00 | 0.00 | 24 | 992.9 |
| 20260506104611 | 75 | 253 | 3.5 | 7.0 | 0.00 | 0.00 | 0.00 | 24 | 992.9 |
| 20260506104415 | 75 | 142 | 3.5 | 5.2 | 0.00 | 0.00 | 0.00 | 24 | 992.7 |
| 20260506104017 | 76 | 321 | 2.6 | 4.3 | 0.00 | 0.00 | 0.00 | 25 | 992.8 |
| 20260506103803 | 76 | 317 | 2.6 | 5.2 | 0.00 | 0.00 | 0.00 | 25 | 992.9 |
| 20260506103352 | 76 | 329 | 3.5 | 5.2 | 0.00 | 0.00 | 0.00 | 25 | 992.8 |
| 20260506103156 | 76 | 259 | 2.6 | 6.1 | 0.00 | 0.00 | 0.00 | 25 | 992.8 |
| 20260506102759 | 75 | 339 | 1.7 | 7.8 | 0.00 | 0.00 | 0.00 | 25 | 992.9 |
| 20260506102545 | 76 | 341 | 1.7 | 7.0 | 0.00 | 0.00 | 0.00 | 25 | 992.8 |
| 20260506102140 | 76 | 323 | 4.3 | 7.8 | 0.00 | 0.00 | 0.00 | 26 | 992.9 |
| 20260506101951 | 76 | 333 | 2.6 | 7.8 | 0.00 | 0.00 | 0.00 | 26 | 992.9 |
| 20260506101800 | 76 | 347 | 6.1 | 7.0 | 0.00 | 0.00 | 0.00 | 26 | 992.9 |
| 20260506101556 | 76 | 345 | 3.5 | 5.2 | 0.00 | 0.00 | 0.00 | 27 | 993.0 |
| 20260506101320 | 75 | 356 | 4.3 | 6.1 | 0.00 | 0.00 | 0.00 | 27 | 993.0 |
| 20260506101127 | 75 | 307 | 2.6 | 6.1 | 0.00 | 0.00 | 0.00 | 27 | 992.9 |
| 20260506100934 | 75 | 317 | 1.7 | 8.7 | 0.00 | 0.00 | 0.00 | 28 | 992.9 |
| 20260506100725 | 75 | 346 | 2.6 | 8.7 | 0.00 | 0.00 | 0.00 | 28 | 992.9 |
| 20260506100514 | 75 | 309 | 5.2 | 8.7 | 0.00 | 0.00 | 0.00 | 28 | 992.9 |
| 20260506100006 | 74 | 311 | 5.2 | 7.0 | 0.00 | 0.00 | 0.00 | 28 | 992.9 |
| 20260506095723 | 74 | 349 | 4.3 | 7.0 | 0.00 | 0.00 | 0.00 | 28 | 992.9 |
| 20260506095531 | 74 | 330 | 4.3 | 7.0 | 0.00 | 0.00 | 0.00 | 28 | 992.9 |
| 20260506095255 | 74 | 316 | 6.1 | 7.0 | 0.00 | 0.00 | 0.00 | 28 | 992.9 |
| 20260506095115 | 74 | 342 | 6.1 | 6.1 | 0.00 | 0.00 | 0.00 | 29 | 992.9 |
| 20260506094902 | 74 | 325 | 3.5 | 7.0 | 0.00 | 0.00 | 0.00 | 29 | 993.0 |
| 20260506094516 | 74 | 331 | 4.3 | 7.0 | 0.00 | 0.00 | 0.00 | 29 | 993.0 |
| 20260506094253 | 73 | 331 | 3.5 | 9.6 | 0.00 | 0.00 | 0.00 | 29 | 993.0 |
| 20260506093914 | 73 | 352 | 6.1 | 9.6 | 0.00 | 0.00 | 0.00 | 29 | 993.1 |
| 20260506093636 | 73 | 327 | 7.8 | 9.6 | 0.00 | 0.00 | 0.00 | 29 | 993.1 |
| 20260506093018 | 73 | 336 | 5.2 | 7.0 | 0.00 | 0.00 | 0.00 | 30 | 993.0 |
| 20260506092823 | 73 | 322 | 3.5 | 7.0 | 0.00 | 0.00 | 0.00 | 31 | 993.0 |
| 20260506092014 | 73 | 337 | 7.8 | 8.7 | 0.00 | 0.00 | 0.00 | 31 | 993.2 |
| 20260506091813 | 73 | 336 | 5.2 | 8.7 | 0.00 | 0.00 | 0.00 | 31 | 993.2 |
| 20260506091357 | 73 | 333 | 6.1 | 6.1 | 0.00 | 0.00 | 0.00 | 31 | 993.1 |
| 20260506090941 | 72 | 326 | 4.3 | 6.1 | 0.00 | 0.00 | 0.00 | 32 | 993.1 |
| 20260506090536 | 72 | 331 | 5.2 | 7.0 | 0.00 | 0.00 | 0.00 | 33 | 993.2 |
| 20260506085731 | 72 | 337 | 1.7 | 7.0 | 0.00 | 0.00 | 0.00 | 33 | 993.2 |
| 20260506085332 | 72 | 332 | 2.6 | 7.8 | 0.00 | 0.00 | 0.00 | 34 | 993.2 |
| 20260506085114 | 72 | 323 | 2.6 | 7.8 | 0.00 | 0.00 | 0.00 | 34 | 993.2 |
| 20260506084929 | 72 | 310 | 2.6 | 7.0 | 0.00 | 0.00 | 0.00 | 34 | 993.2 |
| 20260506084708 | 72 | 346 | 4.3 | 6.1 | 0.00 | 0.00 | 0.00 | 34 | 993.2 |
| 20260506084308 | 71 | 333 | 2.6 | 7.8 | 0.00 | 0.00 | 0.00 | 35 | 993.3 |
| 20260506084105 | 71 | 329 | 5.2 | 7.8 | 0.00 | 0.00 | 0.00 | 34 | 993.3 |
| 20260506083910 | 71 | 328 | 5.2 | 7.8 | 0.00 | 0.00 | 0.00 | 35 | 993.4 |
| 20260506083459 | 71 | 315 | 1.7 | 6.1 | 0.00 | 0.00 | 0.00 | 36 | 993.3 |
| 20260506083307 | 70 | 337 | 3.5 | 7.0 | 0.00 | 0.00 | 0.00 | 36 | 993.4 |
| 20260506083047 | 70 | 324 | 1.7 | 7.0 | 0.00 | 0.00 | 0.00 | 36 | 993.4 |
| 20260506082640 | 70 | 319 | 4.3 | 7.8 | 0.00 | 0.00 | 0.00 | 36 | 993.4 |
| 20260506082447 | 70 | 348 | 3.5 | 7.8 | 0.00 | 0.00 | 0.00 | 36 | 993.4 |
| 20260506082238 | 70 | 330 | 7.8 | 7.8 | 0.00 | 0.00 | 0.00 | 36 | 993.4 |
| 20260506082035 | 70 | 342 | 5.2 | 9.6 | 0.00 | 0.00 | 0.00 | 36 | 993.4 |
| 20260506081826 | 70 | 346 | 7.0 | 9.6 | 0.00 | 0.00 | 0.00 | 36 | 993.5 |
| 20260506081646 | 71 | 315 | 5.2 | 9.6 | 0.00 | 0.00 | 0.00 | 36 | 993.4 |
| 20260506081423 | 71 | 331 | 3.5 | 7.0 | 0.00 | 0.00 | 0.00 | 36 | 993.4 |
| 20260506081031 | 70 | 345 | 5.2 | 6.1 | 0.00 | 0.00 | 0.00 | 37 | 993.4 |
| 20260506080835 | 70 | 64 | 1.7 | 5.2 | 0.00 | 0.00 | 0.00 | 37 | 993.3 |
| 20260506080621 | 70 | 316 | 4.3 | 5.2 | 0.00 | 0.00 | 0.00 | 38 | 993.3 |
| 20260506080419 | 70 | 326 | 1.7 | 6.1 | 0.00 | 0.00 | 0.00 | 38 | 993.3 |
| 20260506073310 | 68 | 338 | 5.2 | 5.2 | 0.00 | 0.00 | 0.00 | 41 | 993.4 |
| 20260506073146 | 68 | 358 | 2.6 | 6.1 | 0.00 | 0.00 | 0.00 | 41 | 993.4 |
| 20260506072912 | 68 | 329 | 3.5 | 6.1 | 0.00 | 0.00 | 0.00 | 41 | 993.4 |
| 20260506072711 | 68 | 350 | 3.5 | 6.1 | 0.00 | 0.00 | 0.00 | 41 | 993.5 |
| 20260506072310 | 67 | 316 | 0.9 | 5.2 | 0.00 | 0.00 | 0.00 | 42 | 993.5 |
| 20260506072059 | 67 | 335 | 2.6 | 5.2 | 0.00 | 0.00 | 0.00 | 42 | 993.5 |
| 20260506071919 | 67 | 339 | 2.6 | 4.3 | 0.00 | 0.00 | 0.00 | 42 | 993.5 |
| 20260506071651 | 67 | 328 | 0.9 | 4.3 | 0.00 | 0.00 | 0.00 | 42 | 993.5 |
| 20260506071524 | 67 | 331 | 2.6 | 4.3 | 0.00 | 0.00 | 0.00 | 42 | 993.5 |
| 20260506071052 | 67 | 342 | 0.9 | 3.5 | 0.00 | 0.00 | 0.00 | 42 | 993.6 |
| 20260506070835 | 68 | 25 | 1.7 | 3.5 | 0.00 | 0.00 | 0.00 | 42 | 993.6 |
| 20260506070728 | 68 | 341 | 1.7 | 3.5 | 0.00 | 0.00 | 0.00 | 42 | 993.6 |
| 20260506070442 | 68 | 353 | 1.7 | 2.6 | 0.00 | 0.00 | 0.00 | 42 | 993.7 |
| 20260506070250 | 68 | 328 | 2.6 | 2.6 | 0.00 | 0.00 | 0.00 | 42 | 993.6 |
| 20260506062324 | 64 | 270 | 0.0 | 0.0 | 0.00 | 0.00 | 0.00 | 47 | 993.5 |
| 20260506062149 | 63 | 180 | 0.0 | 0.0 | 0.00 | 0.00 | 0.00 | 48 | 993.4 |
| 20260506061938 | 62 | 180 | 0.0 | 0.0 | 0.00 | 0.00 | 0.00 | 49 | 993.4 |
| 20260506061725 | 62 | 180 | 0.0 | 0.0 | 0.00 | 0.00 | 0.00 | 49 | 993.5 |
| 20260506061512 | 61 | 180 | 0.0 | 0.0 | 0.00 | 0.00 | 0.00 | 50 | 993.5 |